Location: Vlissingen
(51.4500°N, 3.5830°E)
Time: 13:50:14
(UTC+01:00)

N. Korean satellite - Pass Details

Date: 02 December 2021
Orbit: 447 x 490 km, 97.3° (Epoch: 27 January)

Event Time Altitude Azimuth Distance (km) Brightness Sun altitude
Rises 06:44:49 0° 6° (N) 2,482 10.1 -15.6°
Reaches altitude 10° 06:46:57 10° 359° (N) 1,597 9.0 -15.2°
Maximum altitude 06:50:07 37° 290° (WNW) 721 6.9 -14.8°
Drops below altitude 10° 06:53:15 10° 222° (SW) 1,575 8.9 -14.3°
Sets 06:55:21 0° 214° (SW) 2,441 10.0 -14.0°
